[[{"header":{"parameterUnit":"m.s-1","parameterCategory":1,"la1":30.2991,"la2":30.254,"lo1":-89.0895,"lo2":-89.0444,"dy":0.0017,"dx":0.0017,"nx":28,"ny":28,"refTime":"2025-09-08T09:00:00:Z","depth":0,"parameterNumber":2,"parameterNumberName":"U-component_of_WINDS"},"data":[0,0,0,0,0,0,0,0,0,0,0,0,0,0,0,0,0,0,0,0,0,0,0,0,0,0,0,0,0,0,0,0,0,0,0,0,0,0,0,0,0,0,0,0,0,0,0,0,0,0,0,0,0,0,0,0,0,0,-5.594,-5.594,0,-5.595,-5.595,-5.595,-5.5808,-5.5804,-5.58,-5.5797,-5.5804,-5.5807,-5.5811,0,0,0,0,0,0,0,0,0,0,0,0,0,-5.5798,-5.5801,-5.594,-5.5941,-5.5941,-5.595,-5.595,-5.595,-5.5809,-5.5804,-5.5799,-5.5795,-5.5802,-5.5807,-5.5811,0,0,0,0,0,0,0,0,0,0,0,0,0,-5.5839,-5.5802,-5.594,-5.5871,-5.5865,-5.595,-5.595,-5.595,-5.581,-5.5804,-5.5798,-5.5793,-5.5801,-5.5806,-5.5812,-5.5962,0,0,-5.5829,-5.5832,0,0,0,0,0,0,0,0,-5.5836,-5.5844,-5.5881,-5.5876,-5.587,-5.5872,-5.5902,-5.5954,-5.5811,-5.5831,-5.5797,-5.579,-5.5831,-5.5834,-5.5848,-5.5962,-5.5963,-5.583,-5.5833,-5.5836,-5.5837,0,0,0,0,0,0,0,-5.5834,-5.5843,-5.5944,-5.5882,-5.5875,-5.5839,-5.5838,-5.5911,-5.5863,-5.5829,-5.5818,-5.5822,-5.5826,-5.5843,-5.5847,-5.5963,-5.583,-5.5835,-5.5838,-5.584,-5.62,-5.6206,0,0,0,0,0,0,-5.5841,-5.5841,-5.5944,-5.5944,-5.5839,-5.5846,-5.5846,-5.5877,-5.5862,-5.5854,-5.5826,-5.5815,-5.5836,-5.5841,-5.5847,-5.602,-5.5836,-5.5841,-5.5844,-5.6194,-5.6202,-5.6208,0,0,0,0,0,0,-5.5838,-5.5851,-5.5943,-5.589,-5.5899,-5.5855,-5.5891,-5.588,-5.5896,-5.586,-5.5851,-5.5852,-5.5832,-5.5839,-5.5934,-5.6018,-5.5843,-5.5849,-5.6187,-5.6196,-5.6205,-5.637,0,0,0,0,0,0,-5.5835,-5.5851,-5.5908,-5.5892,-5.5902,-5.6032,-5.5896,-5.5884,-5.5907,-5.5892,-5.5882,-5.5875,-5.5828,-5.5927,-5.594,-5.6023,-5.5853,-5.6179,-5.6191,-5.6202,-5.6356,-5.6383,-5.6406,0,0,0,0,0,-5.583,-5.5954,-5.5912,-5.5925,-5.5973,-5.6037,-5.6042,-5.5987,-5.5914,-5.597,-5.5947,-5.5875,-5.6008,-5.5938,-5.5952,-5.6038,-5.6173,-5.6188,-5.6201,-5.6345,-5.6378,-5.6406,0,0,0,0,0,0,-5.5979,-5.595,-5.5903,-5.6026,-5.6035,-5.6013,-5.6082,-5.6024,-5.6053,-5.6037,-5.5967,-5.5966,-5.6073,-5.6065,-5.5987,-5.6182,-5.6078,-5.6095,-5.6182,-5.6213,-5.6238,-5.6236,-5.5858,0,0,0,0,0,-5.6026,-5.6082,-5.6053,-5.6164,-5.6171,-5.6127,-5.6152,-5.6109,-5.6115,-5.6118,-5.6102,-5.611,-5.6153,-5.6183,-5.6221,-5.6356,-5.6351,-5.6422,-5.6447,-5.6467,-5.6482,-5.6552,-5.6582,-5.6254,-5.6254,-5.6253,0,0,-5.6124,-5.6115,-5.6154,-5.6194,-5.6196,-5.6254,-5.6131,-5.6197,-5.6239,-5.6128,-5.6217,-5.6206,-5.621,-5.6326,-5.6376,-5.6322,-5.6573,-5.6485,-5.6502,-5.6505,-5.6569,-5.66,-5.6628,-5.6263,-5.6262,-5.626,0,0,-5.6331,-5.6331,-5.6423,-5.6428,-5.6433,-5.6403,-5.6425,-5.6413,-5.6401,-5.649,-5.6408,-5.6456,-5.6533,-5.6539,-5.6553,-5.6765,-5.6698,-5.6779,-5.6909,-5.6977,-5.7003,-5.7026,-5.7099,-5.7127,-5.6795,-5.6795,-5.6796,0,-5.6451,-5.6536,-5.6477,-5.6549,-5.6568,-5.6473,-5.6564,-5.6572,-5.6589,-5.6604,-5.6545,-5.6639,-5.6636,-5.6751,-5.6803,-5.6818,-5.684,-5.6778,-5.7004,-5.7026,-5.7046,-5.7116,-5.7144,-5.6805,-5.6804,-5.6803,-5.6802,0,-5.6683,-5.6743,-5.6816,-5.6836,-5.6864,-5.6946,-5.6899,-5.6934,-5.6889,-5.6865,-5.6957,-5.695,-5.6984,-5.7009,-5.6965,-5.7118,-5.7085,-5.7017,-5.691,-5.7088,-5.7152,-5.7179,-5.6819,-5.6815,-5.6812,-5.681,0,0,-5.698,-5.6969,-5.6996,-5.7004,-5.7004,-5.7049,-5.7127,-5.7161,-5.7192,-5.7209,-5.727,-5.7339,-5.7276,-5.7291,-5.7248,-5.7309,-5.7475,-5.7232,-5.7231,-5.7276,-5.7641,-5.7691,-5.7723,-5.7433,-5.7437,-5.7441,-5.764,0,-5.718,-5.7312,-5.7262,-5.7397,-5.7451,-5.7362,-5.743,-5.7437,-5.7417,-5.7459,-5.7437,-5.7486,-5.74,-5.7409,-5.7465,-5.7443,-5.7547,-5.7428,-5.7488,-5.7491,-5.7487,-5.7757,-5.7809,-5.7997,-5.7665,-5.7669,-5.7672,0,-5.743,-5.7457,-5.7598,-5.7589,-5.7609,-5.7671,-5.7699,-5.7742,-5.7748,-5.7729,-5.7748,-5.7691,-5.7766,-5.7663,-5.7763,-5.7684,-5.7706,-5.7699,-5.7705,-5.7706,-5.759,-5.7763,-5.8056,-5.8083,-5.7712,-5.7709,-5.7706,0,-5.7631,-5.7703,-5.7796,-5.7806,-5.7798,-5.7843,-5.7842,-5.7842,-5.7866,-5.7891,-5.7906,-5.794,-5.7957,-5.7984,-5.7938,-5.7867,-5.8046,-5.7938,-5.8031,-5.8032,-5.8069,-5.8067,-5.8368,-5.8089,-5.8089,-5.8088,-5.8087,0,-5.7857,-5.7946,-5.7886,-5.7943,-5.8041,-5.7983,-5.808,-5.8069,-5.8071,-5.8123,-5.8049,-5.81,-5.8038,-5.8083,-5.8048,-5.8136,-5.8145,-5.8131,-5.812,-5.8136,-5.8138,-5.8147,-5.8132,-5.8095,-5.8094,-5.8092,-5.8091,0,-5.8096,-5.806,-5.8155,-5.8141,-5.8139,-5.8211,-5.8198,-5.825,-5.8226,-5.8294,-5.8307,-5.8269,-5.8318,-5.8276,-5.8324,-5.83,-5.8417,-5.8389,-5.8415,-5.8406,-5.85,-5.8491,-5.8815,-5.8854,-5.8553,-5.8556,-5.8558,0,-5.8241,-5.8308,-5.8301,-5.8332,-5.8335,-5.8386,-5.8411,-5.8357,-5.8386,-5.8399,-5.8449,-5.8492,-5.8523,-5.8607,-5.8583,-5.8619,-5.8589,-5.8701,-5.8594,-5.8608,-5.8588,-5.8584,-5.8589,-5.8721,-5.8725,-5.8728,-5.873,0,-5.8503,-5.8482,-5.8521,-5.8555,-5.8587,-5.8611,-5.8628,-5.8658,-5.8603,-5.8639,-5.8689,-5.8714,-5.8763,-5.8806,-5.8835,-5.8832,-5.8772,-5.8765,-5.8787,-5.8803,-5.8814,-5.8807,-5.8471,-5.8756,-5.8754,-5.8752,-5.875,-5.8749,-5.8697,-5.8752,-5.8756,-5.8803,-5.8811,-5.883,-5.8877,-5.8861,-5.8902,-5.8938,-5.8904,-5.8964,-5.8969,-5.9001,-5.9006,-5.9052,-5.9006,-5.9039,-5.9047,-5.9056,-5.9068,-5.881,-5.9058,-5.9057,-5.9056,-5.9055,-5.9055,0,-5.8953,-5.8952,-5.8995,-5.9023,-5.9059,-5.9002,-5.9019,-5.9053,-5.9107,-5.9117,-5.915,-5.9208,-5.925,-5.9231,-5.9268,-5.9308,-5.9282,-5.9319,-5.9314,-5.9315,-5.9109,-5.9084,-5.934,-5.934,-5.934,-5.934,-5.934,-5.934,-5.909,-5.9179,-5.9159,-5.9252,-5.925,-5.9309,-5.9324,-5.934,-5.9348,-5.9416,-5.9451,-5.9439,-5.9437,-5.9473,-5.951,-5.9503,-5.9519,-5.9567,-5.955,-5.9357,-5.9329,-5.9302,-5.9279,-5.9571,-5.9571,-5.9751,-5.9753,-5.9754]},{"header":{"parameterUnit":"m.s-1","parameterCategory":1,"la1":30.2991,"la2":30.254,"lo1":-89.0895,"lo2":-89.0444,"dy":0.0017,"dx":0.0017,"nx":28,"ny":28,"refTime":"2025-09-08T09:00:00:Z","depth":0,"parameterNumber":3,"parameterNumberName":"V-component_of_WINDS"},"data":[0,0,0,0,0,0,0,0,0,0,0,0,0,0,0,0,0,0,0,0,0,0,0,0,0,0,0,0,0,0,0,0,0,0,0,0,0,0,0,0,0,0,0,0,0,0,0,0,0,0,0,0,0,0,0,0,0,0,-1.8801,-1.8801,0,-1.8807,-1.8808,-1.8808,-1.8778,-1.8777,-1.8777,-1.8776,-1.8782,-1.8783,-1.8784,0,0,0,0,0,0,0,0,0,0,0,0,0,-1.8763,-1.8764,-1.8801,-1.8801,-1.8801,-1.8807,-1.8808,-1.8808,-1.8778,-1.8777,-1.8776,-1.8775,-1.8782,-1.8783,-1.8784,0,0,0,0,0,0,0,0,0,0,0,0,0,-1.8775,-1.8764,-1.8801,-1.8788,-1.8786,-1.8807,-1.8808,-1.8808,-1.8779,-1.8777,-1.8776,-1.8775,-1.8782,-1.8783,-1.8785,-1.8819,0,0,-1.8789,-1.879,0,0,0,0,0,0,0,0,-1.8775,-1.8777,-1.8789,-1.8788,-1.8787,-1.8791,-1.8796,-1.8812,-1.8779,-1.8782,-1.8776,-1.8774,-1.8786,-1.8787,-1.8791,-1.882,-1.882,-1.8789,-1.879,-1.8791,-1.8791,0,0,0,0,0,0,0,-1.8774,-1.8776,-1.8804,-1.879,-1.8788,-1.8781,-1.8781,-1.8799,-1.8791,-1.8781,-1.8779,-1.878,-1.8785,-1.879,-1.8791,-1.882,-1.8789,-1.879,-1.8791,-1.8792,-1.8875,-1.8876,0,0,0,0,0,0,-1.8775,-1.8776,-1.8803,-1.8804,-1.8778,-1.8782,-1.8783,-1.8791,-1.8791,-1.8789,-1.8781,-1.8779,-1.8788,-1.8789,-1.8791,-1.883,-1.8791,-1.8792,-1.8793,-1.8873,-1.8875,-1.8876,0,0,0,0,0,0,-1.8774,-1.8778,-1.8803,-1.8789,-1.8792,-1.8784,-1.8794,-1.8792,-1.8796,-1.8791,-1.8789,-1.8787,-1.8787,-1.8789,-1.8812,-1.883,-1.8793,-1.8794,-1.8872,-1.8874,-1.8876,-1.891,0,0,0,0,0,0,-1.8773,-1.8778,-1.8791,-1.879,-1.8793,-1.8824,-1.8795,-1.8793,-1.8799,-1.8796,-1.8796,-1.8795,-1.8786,-1.881,-1.8813,-1.8831,-1.8795,-1.887,-1.8873,-1.8875,-1.8907,-1.8913,-1.8917,0,0,0,0,0,-1.8772,-1.8801,-1.8792,-1.8795,-1.881,-1.8825,-1.8827,-1.8816,-1.88,-1.8813,-1.881,-1.8795,-1.8828,-1.8813,-1.8816,-1.8835,-1.8869,-1.8872,-1.8875,-1.8904,-1.8911,-1.8917,0,0,0,0,0,0,-1.8805,-1.8801,-1.8791,-1.882,-1.8823,-1.882,-1.8837,-1.8824,-1.8832,-1.8829,-1.8815,-1.8816,-1.884,-1.884,-1.8823,-1.8867,-1.8846,-1.8849,-1.8867,-1.8873,-1.8878,-1.8878,-1.8796,0,0,0,0,0,-1.8816,-1.8829,-1.8825,-1.8851,-1.8853,-1.8845,-1.8851,-1.8842,-1.8845,-1.8847,-1.8845,-1.8848,-1.8858,-1.8866,-1.8876,-1.8907,-1.8906,-1.8921,-1.8927,-1.8931,-1.8934,-1.8949,-1.8955,-1.8886,-1.8886,-1.8886,0,0,-1.8838,-1.8837,-1.8847,-1.8857,-1.8859,-1.8872,-1.8846,-1.8862,-1.8872,-1.8849,-1.887,-1.8868,-1.8871,-1.8898,-1.8909,-1.8898,-1.8953,-1.8935,-1.8938,-1.8939,-1.8953,-1.8959,-1.8965,-1.8888,-1.8888,-1.8888,0,0,-1.8885,-1.8887,-1.8908,-1.8909,-1.8912,-1.8906,-1.8911,-1.8909,-1.8907,-1.8928,-1.8911,-1.8922,-1.8942,-1.8944,-1.8947,-1.8993,-1.898,-1.8997,-1.9024,-1.9039,-1.9044,-1.9049,-1.9064,-1.907,-1.9,-1.9,-1.9001,0,-1.8913,-1.8933,-1.892,-1.8937,-1.8941,-1.8921,-1.8942,-1.8944,-1.895,-1.8953,-1.894,-1.8963,-1.8964,-1.8989,-1.9,-1.9004,-1.9009,-1.8997,-1.9044,-1.9049,-1.9053,-1.9067,-1.9073,-1.9002,-1.9002,-1.9002,-1.9002,0,-1.8965,-1.8979,-1.8996,-1.9001,-1.9007,-1.9026,-1.9016,-1.9024,-1.9015,-1.901,-1.903,-1.903,-1.9038,-1.9044,-1.9035,-1.9068,-1.9061,-1.9047,-1.9024,-1.9062,-1.9075,-1.9081,-1.9005,-1.9005,-1.9004,-1.9004,0,0,-1.9034,-1.9031,-1.9037,-1.9038,-1.9038,-1.9049,-1.9066,-1.9074,-1.908,-1.9085,-1.9098,-1.9114,-1.91,-1.9104,-1.9095,-1.9108,-1.9143,-1.9092,-1.9092,-1.91,-1.9177,-1.9187,-1.9194,-1.9134,-1.9135,-1.9136,-1.9177,0,-1.9079,-1.9108,-1.9097,-1.9126,-1.9138,-1.9118,-1.9133,-1.9134,-1.913,-1.9139,-1.9134,-1.9145,-1.9127,-1.9129,-1.9141,-1.9136,-1.9158,-1.9133,-1.9145,-1.9146,-1.9144,-1.9201,-1.9212,-1.9251,-1.9182,-1.9183,-1.9183,0,-1.9136,-1.9141,-1.9172,-1.9168,-1.9173,-1.9186,-1.9191,-1.9201,-1.9201,-1.9197,-1.9201,-1.9189,-1.9205,-1.9183,-1.9204,-1.9187,-1.9191,-1.919,-1.9191,-1.9191,-1.9166,-1.9202,-1.9263,-1.9268,-1.9192,-1.9191,-1.919,0,-1.9181,-1.9196,-1.9216,-1.9217,-1.9214,-1.9224,-1.9223,-1.9222,-1.9227,-1.9232,-1.9235,-1.9242,-1.9245,-1.9251,-1.924,-1.9225,-1.9262,-1.924,-1.9258,-1.9259,-1.9267,-1.9266,-1.9328,-1.9271,-1.9271,-1.9271,-1.9271,0,-1.9232,-1.9251,-1.9235,-1.9248,-1.9268,-1.9254,-1.9275,-1.9272,-1.9271,-1.9282,-1.9266,-1.9276,-1.9262,-1.9271,-1.9263,-1.9281,-1.9283,-1.928,-1.9277,-1.928,-1.9281,-1.9282,-1.9279,-1.9273,-1.9272,-1.9272,-1.9272,0,-1.9285,-1.9276,-1.9296,-1.9291,-1.929,-1.9305,-1.93,-1.9311,-1.9305,-1.9319,-1.9321,-1.9312,-1.9321,-1.9311,-1.9321,-1.9315,-1.9339,-1.9333,-1.9338,-1.9336,-1.9355,-1.9353,-1.942,-1.9427,-1.9366,-1.9367,-1.9367,0,-1.9318,-1.9332,-1.9328,-1.9333,-1.9333,-1.9343,-1.9347,-1.9334,-1.934,-1.9341,-1.9351,-1.9359,-1.9364,-1.938,-1.9374,-1.9381,-1.9374,-1.9397,-1.9375,-1.9377,-1.9373,-1.9372,-1.9372,-1.9401,-1.9402,-1.9403,-1.9403,0,-1.9376,-1.937,-1.9377,-1.9382,-1.9388,-1.9391,-1.9394,-1.9399,-1.9385,-1.9392,-1.9401,-1.9405,-1.9414,-1.9422,-1.9426,-1.9425,-1.9411,-1.941,-1.9415,-1.9418,-1.942,-1.9417,-1.9349,-1.9409,-1.9408,-1.9408,-1.9407,-1.9407,-1.9419,-1.943,-1.9428,-1.9436,-1.9436,-1.9438,-1.9447,-1.9442,-1.9449,-1.9454,-1.9447,-1.9457,-1.9457,-1.9461,-1.9461,-1.9469,-1.9459,-1.9466,-1.9468,-1.9469,-1.9471,-1.9419,-1.947,-1.947,-1.947,-1.947,-1.947,0,-1.9475,-1.9473,-1.948,-1.9483,-1.9489,-1.9475,-1.9477,-1.9483,-1.9492,-1.9492,-1.9498,-1.9507,-1.9514,-1.9509,-1.9514,-1.9522,-1.9516,-1.9523,-1.9522,-1.9522,-1.9481,-1.9476,-1.9528,-1.9528,-1.9528,-1.9528,-1.9528,-1.9528,-1.9505,-1.9522,-1.9516,-1.9532,-1.9529,-1.9539,-1.9541,-1.9543,-1.9542,-1.9554,-1.9559,-1.9555,-1.9553,-1.9558,-1.9563,-1.9561,-1.9564,-1.9574,-1.9569,-1.9531,-1.9525,-1.952,-1.9515,-1.9575,-1.9575,-1.961,-1.961,-1.961]}]]